QPF
0.00 0.00 0.00 0.00 0.00 0.00 0.00 0.00 0.00 0.00 0.00 0.00 0.00 0.00 0.00 0.00 0.00 0.00 0.00 0.00 0.00 0.00 0.00 0.00 0.00 0.00 0.00 0.00 0.00 0.00 0.00 0.00 0.00 0.00 0.00 0.00 0.00 0.00 0.00 0.00 0.00 0.00 0.00 0.00 0.00
0.00 0.00 0.00 0.00 0.00 0.00 0.00 0.00 0.00 0.00 0.00 0.00 0.00 0.00 0.00 0.00 0.00 0.00 0.00 0.00 0.00 0.00 0.00 0.00 0.00 0.00 0.00 0.00 0.00 0.00 0.00 0.00 0.00 0.00 0.00 0.00 0.00 0.00 0.00 0.00 0.00 0.00 0.00 0.00 0.00
0.00 0.00 0.00 0.00 0.00 0.00 0.00 0.00 0.00 0.00 0.00 0.00 0.00 0.00 0.00 0.00 0.00 0.00 0.00 0.00 0.00 0.00 0.00 0.00 0.00 0.00 0.00 0.00 0.00 0.00 0.00 0.00 0.00 0.00 0.00 0.00 0.00 0.00 0.00 0.00 0.00 0.00 0.00 0.00 0.00
0.00 0.00 0.00 0.00 0.00 0.00 0.00 0.00 0.00 0.00 0.00 0.00 0.00 0.00 0.00 0.00 0.00 0.00 0.00 0.00 0.00 0.00 0.00 0.00 0.00 0.00 0.00 0.00 0.00 0.00 0.00 0.00 0.00 0.00 0.00 0.00 0.00 0.00 0.00 0.00 0.00 0.00 0.00 0.00 0.00
0.00 0.00 0.00 0.00 0.00 0.00 0.00 0.00 0.00 0.00 0.00 0.00 0.00 0.00 0.00 0.00 0.00 0.00 0.00 0.00 0.00 0.00 0.00 0.00 0.00 0.00 0.00 0.00 0.00 0.00 0.00 0.00 0.00 0.00 0.00 0.00 0.00 0.00 0.00 0.00 0.00 0.00 0.00 0.00 0.00
0.00 0.00 0.00 0.00 0.00 0.00 0.00 0.00 0.00 0.00 0.00 0.00 0.00 0.00 0.00 0.00 0.00 0.00 0.00 0.00 0.00 0.00 0.00 0.00 0.00 0.00 0.00 0.00 0.00 0.00 0.00 0.00 0.00 0.00 0.00 0.00 0.00 0.00 0.00 0.00 0.00 0.00 0.00 0.00 0.00
0.00 0.00 0.00 0.00 0.00 0.00 0.00 0.00 0.00 0.00 0.00 0.00 0.00 0.00 0.00 0.00 0.00 0.00 0.00 0.00 0.00 0.00 0.00 0.00 0.00 0.00 0.00 0.00 0.00 0.00 0.00 0.00 0.00 0.00 0.00 0.00 0.00 0.00 0.00 0.00 0.00 0.00 0.00 0.00 0.01
0.00 0.00 0.00 0.00 0.00 0.00 0.00 0.00 0.00 0.00 0.00 0.00 0.00 0.00 0.00 0.00 0.00 0.00 0.00 0.00 0.00 0.00 0.00 0.00 0.00 0.00 0.00 0.00 0.00 0.00 0.00 0.00 0.00 0.00 0.00 0.00 0.00 0.00 0.00 0.00 0.00 0.00 0.00 0.00 0.00
0.00 0.00 0.00 0.00 0.00 0.00 0.00 0.00 0.00 0.00 0.00 0.00 0.00 0.00 0.00 0.00 0.00 0.00 0.00 0.00 0.00 0.00 0.00 0.00 0.00 0.00 0.00 0.00 0.00 0.00 0.00 0.00 0.00 0.00 0.00 0.00 0.00 0.00 0.00 0.00 0.00 0.00 0.00 0.00 0.00
0.00 0.00 0.00 0.00 0.00 0.00 0.00 0.00 0.00 0.00 0.00 0.00 0.00 0.00 0.00 0.00 0.00 0.00 0.00 0.00 0.00 0.00 0.00 0.00 0.00 0.00 0.00 0.00 0.00 0.00 0.00 0.00 0.00 0.00 0.00 0.00 0.00 0.00 0.00 0.00 0.00 0.00 0.00 0.00 0.00
0.00 0.00 0.00 0.00 0.00 0.00 0.00 0.00 0.00 0.00 0.00 0.00 0.00 0.00 0.00 0.00 0.00 0.00 0.00 0.00 0.00 0.00 0.00 0.00 0.00 0.00 0.00 0.00 0.00 0.00 0.00 0.00 0.00 0.00 0.00 0.00 0.02 0.00 0.00 0.00 0.00 0.00 0.00 0.00 0.00
0.00 0.00 0.00 0.00 0.00 0.00 0.00 0.00 0.00 0.00 0.00 0.00 0.00 0.00 0.00 0.00 0.00 0.00 0.00 0.00 0.00 0.00 0.00 0.00 0.00 0.00 0.00 0.00 0.00 0.00 0.00 0.00 0.00 0.00 0.00 0.00 0.01 0.03 0.00 0.00 0.00 0.00 0.00 0.00 0.00
0.00 0.00 0.00 0.00 0.00 0.00 0.00 0.00 0.00 0.00 0.00 0.00 0.00 0.00 0.00 0.00 0.00 0.00 0.00 0.00 0.00 0.00 0.00 0.00 0.00 0.00 0.00 0.00 0.00 0.00 0.00 0.00 0.00 0.00 0.00 0.00 0.00 0.00 0.00 0.00 0.00 0.00 0.00 0.00 0.00
0.00 0.00 0.00 0.00 0.00 0.00 0.00 0.00 0.00 0.00 0.00 0.00 0.00 0.00 0.00 0.00 0.00 0.00 0.00 0.00 0.00 0.00 0.00 0.00 0.00 0.00 0.00 0.00 0.00 0.00 0.00 0.00 0.00 0.00 0.00 0.00 0.00 0.00 0.00 0.00 0.00 0.00 0.00 0.00 0.00
0.00 0.00 0.00 0.00 0.00 0.00 0.00 0.00 0.00 0.00 0.00 0.00 0.00 0.00 0.00 0.00 0.00 0.00 0.00 0.00 0.00 0.00 0.00 0.00 0.00 0.00 0.00 0.00 0.00 0.00 0.00 0.00 0.00 0.00 0.00 0.00 0.00 0.00 0.00 0.00 0.00 0.00 0.00 0.00 0.00
0.00 0.00 0.00 0.00 0.00 0.00 0.00 0.00 0.00 0.00 0.00 0.00 0.00 0.00 0.00 0.00 0.00 0.00 0.00 0.00 0.00 0.00 0.00 0.00 0.00 0.00 0.00 0.00 0.00 0.00 0.00 0.00 0.00 0.00 0.00 0.00 0.00 0.00 0.00 0.00 0.00 0.00 0.00 0.00 0.00
0.00 0.00 0.00 0.00 0.00 0.00 0.00 0.00 0.00 0.00 0.00 0.00 0.00 0.00 0.00 0.00 0.00 0.00 0.00 0.00 0.00 0.00 0.00 0.00 0.00 0.00 0.00 0.00 0.00 0.00 0.00 0.00 0.00 0.00 0.00 0.00 0.00 0.00 0.00 0.00 0.00 0.00 0.00 0.00 0.00
0.00 0.00 0.00 0.00 0.00 0.00 0.00 0.00 0.00 0.00 0.00 0.00 0.00 0.00 0.00 0.00 0.00 0.00 0.00 0.00 0.00 0.00 0.00 0.00 0.00 0.00 0.00 0.00 0.00 0.00 0.00 0.00 0.00 0.00 0.00 0.00 0.00 0.00 0.00 0.00 0.00 0.00 0.00 0.00 0.00
0.00 0.00 0.00 0.00 0.00 0.00 0.00 0.00 0.00 0.00 0.00 0.00 0.00 0.00 0.00 0.00 0.00 0.00 0.00 0.00 0.00 0.00 0.00 0.00 0.00 0.00 0.00 0.00 0.00 0.00 0.00 0.00 0.00 0.00 0.00 0.00 0.00 0.00 0.00 0.00 0.00 0.00 0.00 0.00 0.00
0.00 0.00 0.00 0.00 0.00 0.00 0.00 0.00 0.00 0.00 0.00 0.00 0.00 0.00 0.00 0.00 0.00 0.00 0.00 0.00 0.00 0.00 0.00 0.00 0.00 0.00 0.00 0.00 0.00 0.00 0.00 0.00 0.00 0.00 0.00 0.00 0.00 0.00 0.00 0.00 0.00 0.00 0.00 0.00 0.00
0.00 0.00 0.00 0.00 0.00 0.00 0.00 0.00 0.00 0.00 0.00 0.00 0.00 0.00 0.00 0.00 0.00 0.00 0.00 0.00 0.00 0.00 0.00 0.00 0.00 0.00 0.00 0.00 0.00 0.00 0.00 0.02 0.02 0.00 0.00 0.00 0.00 0.00 0.00 0.00 0.00 0.00 0.00 0.00 0.00
0.00 0.00 0.00 0.00 0.00 0.00 0.00 0.00 0.00 0.00 0.00 0.00 0.00 0.00 0.00 0.00 0.00 0.00 0.00 0.00 0.00 0.00 0.00 0.00 0.00 0.00 0.00 0.00 0.00 0.00 0.00 0.00 0.02 0.02 0.01 0.00 0.00 0.00 0.00 0.00 0.00 0.00 0.00 0.00 0.00
0.00 0.00 0.00 0.00 0.00 0.00 0.00 0.00 0.00 0.00 0.00 0.00 0.00 0.00 0.00 0.00 0.00 0.00 0.00 0.00 0.00 0.00 0.00 0.00 0.00 0.00 0.00 0.00 0.01 0.00 0.00 0.00 0.02 0.02 0.01 0.01 0.00 0.00 0.00 0.00 0.00 0.00 0.00 0.00 0.00
0.00 0.00 0.00 0.00 0.00 0.00 0.00 0.00 0.00 0.00 0.00 0.00 0.00 0.00 0.00 0.00 0.00 0.00 0.00 0.00 0.00 0.00 0.00 0.00 0.01 0.01 0.01 0.00 0.00 0.00 0.00 0.01 0.03 0.03 0.03 0.00 0.00 0.00 0.00 0.00 0.00 0.00 0.00 0.00 0.00
0.00 0.00 0.00 0.00 0.00 0.00 0.00 0.00 0.00 0.00 0.00 0.00 0.00 0.00 0.00 0.00 0.00 0.00 0.00 0.00 0.00 0.00 0.00 0.00 0.00 0.00 0.01 0.00 0.00 0.00 0.00 0.00 0.00 0.02 0.01 0.00 0.00 0.00 0.00 0.00 0.00 0.00 0.00 0.00 0.00
0.00 0.00 0.00 0.00 0.00 0.00 0.00 0.00 0.00 0.00 0.00 0.00 0.00 0.00 0.00 0.00 0.00 0.00 0.00 0.00 0.00 0.00 0.00 0.00 0.00 0.00 0.00 0.01 0.01 0.00 0.00 0.01 0.00 0.00 0.00 0.00 0.00 0.00 0.00 0.00 0.00 0.00 0.00 0.00 0.00
0.00 0.00 0.00 0.00 0.00 0.00 0.00 0.00 0.00 0.00 0.00 0.00 0.00 0.00 0.00 0.00 0.00 0.00 0.00 0.00 0.00 0.00 0.01 0.02 0.01 0.01 0.00 0.00 0.01 0.01 0.00 0.00 0.00 0.00 0.00 0.00 0.00 0.00 0.00 0.00 0.00 0.00 0.00 0.00 0.00
MSLP
1018.19 1017.85 1017.52 1017.34 1017.23 1016.93 1016.82 1016.70 1016.47 1016.28 1016.09 1015.78 1015.58 1015.27 1014.94 1014.52 1014.06 1013.86 1012.50 1010.42 1010.36 1010.26 1010.57 1010.53 1010.56 1010.52 1010.52 1010.26 1010.37 1010.30 1009.60 1008.90 1008.66 1008.95 1008.80 1009.85 1010.28 1011.49 1011.91 1012.10 1012.99 1013.34 1013.54 1014.47 1016.17
1018.13 1017.45 1017.32 1017.20 1017.02 1016.79 1016.66 1016.51 1016.27 1016.20 1015.92 1015.63 1015.39 1015.06 1014.76 1014.40 1013.79 1012.34 1009.95 1010.03 1010.16 1010.20 1010.21 1010.18 1010.24 1010.33 1010.19 1010.11 1010.11 1009.65 1009.14 1008.50 1008.40 1008.62 1008.81 1009.60 1010.37 1011.22 1011.85 1012.41 1013.51 1014.16 1014.92 1015.44 1016.38
1017.70 1017.27 1017.27 1017.04 1016.82 1016.63 1016.37 1016.36 1016.16 1015.97 1015.65 1015.46 1015.19 1014.84 1014.54 1014.24 1013.01 1010.07 1009.51 1009.59 1010.01 1010.20 1009.82 1009.88 1009.99 1009.97 1009.92 1010.02 1009.79 1009.62 1008.79 1008.64 1008.71 1008.94 1009.21 1009.59 1010.64 1011.37 1011.86 1012.46 1013.04 1014.13 1015.19 1015.89 1016.59
1017.40 1017.30 1017.15 1016.83 1016.69 1016.22 1016.21 1016.19 1016.07 1015.77 1015.51 1015.31 1015.00 1014.65 1014.30 1013.91 1011.91 1009.62 1009.40 1009.10 1009.68 1009.98 1009.74 1009.86 1009.93 1009.72 1009.63 1009.54 1009.59 1009.48 1009.22 1009.28 1009.34 1009.48 1009.53 1009.76 1010.73 1011.90 1012.69 1013.67 1013.87 1014.92 1015.92 1016.55 1017.08
1017.37 1017.21 1016.89 1016.63 1016.28 1016.01 1016.03 1016.04 1015.86 1015.62 1015.35 1015.17 1014.85 1014.54 1014.08 1012.88 1010.60 1009.59 1009.58 1009.42 1009.87 1010.04 1009.68 1009.69 1009.62 1009.66 1009.33 1009.38 1009.65 1009.62 1009.44 1009.89 1009.91 1010.02 1010.08 1010.50 1011.24 1012.26 1013.76 1014.67 1015.07 1015.93 1016.89 1017.54 1017.94
1017.19 1016.86 1016.64 1016.27 1016.02 1015.95 1015.84 1015.87 1015.70 1015.44 1015.21 1015.01 1014.73 1014.47 1013.71 1011.67 1009.63 1009.82 1009.79 1009.68 1009.70 1009.81 1009.93 1009.76 1009.47 1009.58 1009.41 1009.41 1009.56 1009.90 1010.00 1010.23 1010.34 1010.48 1010.95 1010.86 1012.07 1012.40 1014.63 1015.31 1015.80 1016.42 1017.40 1018.15 1018.55
1016.76 1016.51 1016.34 1016.23 1015.94 1015.78 1015.69 1015.56 1015.35 1015.09 1014.95 1014.80 1014.55 1014.12 1013.01 1010.50 1009.50 1009.79 1009.83 1009.56 1009.72 1009.54 1009.70 1009.81 1009.68 1009.55 1009.44 1009.46 1010.07 1010.14 1010.18 1010.48 1010.84 1010.84 1011.11 1011.32 1012.28 1012.83 1014.42 1015.44 1016.09 1016.97 1017.93 1018.68 1019.19
1016.43 1016.33 1016.20 1016.05 1015.77 1015.54 1015.38 1015.11 1014.95 1014.79 1014.72 1014.58 1014.45 1013.87 1011.48 1009.47 1009.53 1009.57 1009.58 1009.63 1009.77 1009.74 1009.51 1009.57 1009.73 1009.55 1009.45 1009.78 1009.92 1009.94 1010.20 1009.99 1010.74 1010.91 1011.44 1011.57 1011.20 1013.20 1014.50 1015.35 1016.16 1017.13 1017.97 1018.88 1019.48
1016.34 1016.14 1015.92 1015.75 1015.63 1015.31 1015.07 1014.69 1014.48 1014.48 1014.41 1014.43 1014.24 1013.25 1010.42 1009.24 1009.08 1008.67 1008.82 1008.76 1009.36 1009.63 1009.69 1009.65 1009.63 1009.60 1009.63 1009.40 1009.63 1010.01 1009.64 1010.07 1010.36 1010.82 1011.09 1011.56 1011.14 1012.94 1014.43 1015.32 1016.16 1017.15 1018.01 1018.83 1019.56
1016.10 1015.82 1015.72 1015.60 1015.34 1014.98 1014.63 1014.34 1014.25 1014.34 1014.30 1014.17 1013.65 1012.92 1009.96 1008.96 1008.27 1008.42 1008.72 1008.57 1008.78 1009.31 1009.46 1009.57 1009.71 1009.58 1009.62 1009.32 1008.97 1009.21 1009.54 1009.83 1009.75 1010.40 1011.04 1011.33 1011.69 1013.19 1014.36 1015.09 1015.88 1017.07 1017.98 1018.83 1019.50
1015.78 1015.64 1015.41 1015.24 1014.97 1014.67 1014.00 1013.99 1014.21 1013.93 1013.41 1012.20 1011.52 1010.66 1009.40 1008.64 1008.15 1007.92 1008.30 1008.35 1008.56 1008.93 1009.06 1009.61 1009.33 1009.06 1009.13 1009.25 1009.33 1009.30 1009.48 1009.31 1009.26 1010.04 1010.61 1010.78 1011.18 1012.79 1013.98 1014.72 1015.47 1016.36 1017.41 1018.24 1019.13
1015.57 1015.35 1015.08 1014.89 1014.70 1014.39 1014.27 1013.35 1013.31 1013.25 1012.28 1010.82 1010.52 1010.10 1009.36 1008.98 1008.46 1007.91 1008.05 1007.97 1008.30 1008.47 1009.09 1009.42 1008.89 1008.94 1009.22 1009.44 1009.41 1009.40 1009.39 1009.21 1009.50 1009.74 1010.27 1010.20 1010.53 1012.07 1013.17 1013.57 1014.37 1015.37 1016.49 1017.58 1018.83
1015.17 1015.05 1014.91 1014.70 1014.40 1014.24 1013.85 1013.14 1012.97 1012.87 1012.24 1010.09 1009.52 1009.12 1008.81 1008.81 1008.28 1007.78 1007.77 1007.73 1007.87 1008.26 1008.52 1008.49 1008.31 1008.65 1008.90 1009.22 1009.21 1009.09 1008.92 1009.00 1009.13 1009.81 1010.14 1010.29 1010.03 1010.84 1012.00 1012.81 1013.79 1014.67 1015.62 1016.73 1017.78
1014.94 1014.94 1014.74 1014.43 1014.46 1014.06 1013.35 1012.97 1012.87 1012.78 1011.55 1009.83 1008.67 1008.54 1008.70 1008.56 1007.94 1007.42 1007.34 1007.41 1007.89 1008.00 1008.49 1008.26 1007.94 1008.18 1008.44 1008.38 1008.50 1008.25 1008.22 1008.31 1008.79 1009.39 1009.10 1009.70 1008.69 1008.97 1009.98 1011.66 1012.76 1013.55 1014.49 1015.57 1017.03
1014.84 1014.68 1014.55 1014.18 1014.30 1013.82 1013.26 1012.93 1012.64 1012.60 1010.94 1009.52 1008.29 1008.05 1008.28 1008.35 1007.98 1007.40 1007.33 1007.24 1007.29 1007.85 1008.41 1007.52 1007.56 1007.68 1007.49 1007.13 1007.62 1007.26 1007.62 1008.17 1008.38 1008.50 1008.79 1009.36 1009.14 1008.25 1009.78 1010.34 1010.69 1011.39 1012.69 1014.52 1016.26
1014.53 1014.47 1014.51 1014.46 1014.48 1013.36 1012.97 1012.74 1012.52 1011.92 1010.97 1009.72 1008.76 1008.44 1008.26 1008.28 1008.05 1007.65 1007.48 1007.49 1007.67 1007.92 1008.06 1007.35 1007.53 1007.35 1006.68 1006.87 1007.02 1007.08 1007.64 1008.39 1008.78 1008.58 1008.10 1008.06 1008.44 1007.22 1008.51 1008.27 1008.18 1009.66 1012.05 1013.99 1015.71
1014.38 1014.47 1014.56 1014.47 1013.85 1013.27 1012.96 1012.41 1012.19 1012.11 1011.66 1010.74 1009.79 1009.39 1009.29 1009.27 1008.89 1008.70 1008.41 1008.41 1008.61 1008.51 1007.95 1007.53 1007.05 1006.77 1006.73 1006.58 1006.76 1006.93 1007.18 1007.28 1007.65 1007.83 1006.50 1007.29 1007.73 1006.98 1007.98 1008.73 1009.13 1009.41 1011.77 1013.96 1015.44
1014.42 1014.56 1014.68 1014.15 1013.63 1013.39 1012.58 1012.32 1012.86 1013.43 1012.67 1011.89 1011.07 1010.49 1010.55 1010.65 1010.27 1009.87 1009.56 1009.58 1009.84 1009.72 1009.10 1008.28 1007.15 1007.21 1007.14 1006.67 1006.33 1006.53 1006.57 1006.26 1005.99 1006.03 1005.86 1007.26 1006.82 1007.18 1009.09 1009.75 1009.79 1010.24 1011.88 1013.83 1015.26
1014.56 1014.59 1014.20 1013.65 1013.45 1013.17 1012.61 1013.29 1014.79 1014.60 1013.97 1013.05 1012.10 1011.83 1011.81 1011.87 1011.86 1010.97 1011.05 1011.39 1011.34 1011.28 1010.76 1009.50 1008.43 1007.81 1007.50 1007.17 1007.30 1007.00 1006.97 1007.02 1006.45 1006.61 1006.27 1006.06 1006.99 1008.81 1009.56 1010.40 1010.71 1011.25 1012.58 1014.02 1015.11
1014.39 1014.08 1013.69 1013.32 1013.23 1012.76 1013.12 1014.64 1015.16 1015.24 1014.64 1013.89 1013.51 1013.63 1013.17 1013.11 1012.73 1012.50 1012.38 1013.34 1012.93 1012.81 1012.51 1010.82 1009.53 1008.57 1008.04 1007.79 1007.77 1007.59 1007.88 1007.66 1007.50 1006.75 1006.05 1005.78 1007.21 1007.92 1009.63 1010.70 1011.73 1012.62 1013.41 1014.47 1015.59
1014.28 1013.87 1013.31 1013.06 1012.99 1013.39 1014.74 1015.56 1015.67 1015.57 1015.28 1014.90 1014.81 1014.57 1014.54 1014.33 1014.02 1013.50 1013.51 1014.00 1013.88 1013.37 1012.78 1012.44 1011.34 1009.40 1008.81 1008.01 1007.97 1008.12 1008.10 1008.68 1008.76 1008.38 1007.54 1007.10 1007.65 1009.20 1010.35 1011.49 1012.23 1013.02 1014.08 1015.03 1015.77
1014.55 1014.45 1013.82 1013.15 1014.14 1015.76 1016.17 1016.56 1016.69 1016.50 1016.31 1016.01 1015.85 1015.82 1015.61 1015.39 1014.89 1014.49 1014.56 1014.67 1014.89 1014.70 1014.15 1014.01 1013.23 1011.15 1009.63 1009.17 1009.08 1008.94 1008.91 1009.11 1009.04 1008.97 1008.94 1009.12 1008.33 1010.07 1010.95 1012.08 1013.13 1013.42 1014.58 1015.48 1016.45
1015.21 1015.50 1014.44 1013.80 1015.78 1016.87 1017.36 1017.45 1017.61 1017.35 1017.45 1017.27 1017.11 1017.17 1016.86 1016.52 1016.14 1015.64 1015.51 1015.29 1015.33 1015.21 1015.14 1014.69 1014.29 1013.24 1010.73 1010.39 1010.32 1009.99 1010.21 1010.20 1010.16 1010.11 1009.68 1009.83 1009.33 1011.18 1011.71 1012.84 1013.76 1013.77 1014.41 1016.09 1017.24
1015.68 1016.41 1016.76 1017.10 1018.38 1018.00 1018.28 1018.64 1018.41 1018.49 1018.44 1018.44 1018.36 1017.90 1017.82 1017.33 1017.26 1016.77 1016.41 1015.96 1015.94 1015.88 1015.75 1015.73 1015.50 1015.38 1014.64 1014.13 1013.78 1012.88 1011.93 1011.84 1011.45 1010.91 1010.30 1010.21 1010.27 1011.34 1012.33 1012.86 1013.79 1014.52 1015.25 1015.64 1017.06
1016.70 1018.35 1018.89 1018.98 1019.26 1019.32 1019.31 1019.80 1019.57 1019.28 1019.18 1019.11 1018.88 1018.91 1018.92 1018.31 1017.76 1017.35 1017.13 1016.79 1016.40 1016.60 1016.33 1016.24 1015.57 1015.44 1014.80 1014.77 1014.89 1015.54 1014.02 1013.35 1013.16 1012.79 1012.21 1011.66 1011.89 1012.44 1012.78 1012.81 1013.54 1014.46 1015.72 1016.82 1017.77
1017.82 1018.55 1019.57 1020.11 1020.31 1020.07 1020.30 1020.51 1020.47 1020.27 1020.04 1019.69 1019.57 1019.30 1019.09 1018.86 1018.72 1018.25 1018.21 1017.95 1017.58 1017.31 1017.04 1016.97 1015.99 1015.84 1014.38 1014.00 1014.67 1015.08 1015.32 1014.68 1015.25 1015.03 1014.33 1013.98 1013.13 1014.03 1013.37 1012.76 1013.82 1014.79 1015.81 1016.96 1018.23
1018.95 1019.15 1018.96 1020.59 1020.67 1020.56 1020.86 1020.84 1020.81 1020.89 1020.33 1020.04 1019.83 1019.49 1019.02 1018.83 1018.96 1018.83 1018.53 1018.46 1018.48 1018.33 1017.82 1017.65 1017.15 1016.51 1014.63 1014.61 1014.33 1015.08 1016.04 1015.86 1016.58 1016.85 1016.90 1015.57 1015.78 1015.16 1014.49 1014.29 1014.81 1015.69 1016.74 1017.84 1018.61
Thickness
5729 5731 5733 5734 5734 5735 5735 5736 5738 5740 5743 5746 5747 5750 5754 5759 5765 5767 5775 5795 5795 5797 5794 5791 5788 5785 5784 5781 5783 5782 5766 5764 5775 5776 5790 5793 5789 5788 5790 5783 5777 5778 5776 5772 5762
5724 5729 5729 5730 5730 5730 5730 5732 5735 5737 5740 5743 5745 5749 5752 5757 5762 5771 5796 5796 5794 5793 5789 5782 5775 5777 5771 5772 5774 5773 5766 5774 5791 5793 5791 5793 5790 5786 5781 5777 5767 5765 5766 5767 5760
5721 5725 5724 5726 5727 5728 5729 5730 5732 5735 5739 5741 5744 5747 5750 5754 5763 5784 5795 5795 5791 5789 5790 5785 5779 5774 5764 5766 5769 5769 5770 5785 5786 5790 5792 5790 5783 5787 5782 5773 5775 5764 5760 5759 5754
5719 5720 5720 5723 5724 5728 5728 5729 5730 5733 5736 5738 5742 5744 5748 5752 5755 5787 5792 5794 5790 5786 5784 5776 5769 5763 5759 5756 5766 5762 5774 5775 5779 5783 5784 5782 5784 5772 5775 5766 5773 5766 5757 5752 5748
5715 5716 5719 5721 5724 5727 5727 5727 5729 5731 5734 5736 5739 5742 5747 5753 5765 5784 5786 5788 5784 5780 5775 5769 5763 5758 5755 5758 5758 5758 5767 5767 5772 5775 5778 5778 5771 5766 5756 5759 5762 5756 5747 5741 5739
5713 5716 5718 5721 5724 5725 5726 5726 5727 5729 5731 5734 5736 5738 5745 5747 5778 5778 5780 5781 5779 5774 5767 5767 5764 5762 5755 5754 5755 5755 5759 5759 5764 5765 5763 5765 5755 5764 5746 5751 5750 5749 5738 5733 5731
5713 5715 5717 5719 5722 5723 5724 5725 5727 5728 5730 5731 5733 5736 5742 5756 5775 5775 5776 5776 5775 5773 5763 5766 5766 5759 5758 5749 5753 5750 5746 5752 5751 5756 5752 5761 5745 5751 5746 5745 5741 5736 5729 5724 5721
5712 5713 5715 5717 5719 5721 5723 5726 5727 5726 5727 5728 5729 5734 5744 5770 5771 5771 5772 5769 5770 5770 5769 5768 5765 5758 5753 5754 5747 5741 5743 5739 5744 5748 5745 5749 5749 5742 5741 5738 5735 5729 5724 5718 5713
5710 5712 5714 5716 5717 5720 5723 5725 5726 5724 5725 5725 5727 5732 5744 5768 5764 5772 5772 5766 5763 5762 5763 5764 5759 5747 5747 5738 5731 5729 5727 5728 5734 5744 5741 5740 5752 5739 5735 5733 5728 5724 5719 5714 5708
5708 5711 5712 5714 5717 5720 5721 5723 5723 5721 5723 5722 5725 5727 5751 5751 5764 5765 5767 5765 5756 5752 5748 5746 5741 5735 5731 5730 5712 5720 5720 5723 5731 5737 5734 5732 5737 5724 5724 5726 5722 5716 5712 5707 5704
5708 5709 5711 5713 5716 5718 5722 5724 5727 5725 5722 5734 5738 5738 5747 5756 5764 5760 5760 5755 5752 5743 5730 5730 5727 5721 5725 5729 5725 5724 5717 5721 5736 5734 5726 5729 5735 5719 5715 5716 5715 5713 5708 5705 5701
5706 5708 5711 5713 5714 5716 5718 5725 5724 5719 5718 5735 5734 5734 5744 5748 5738 5749 5757 5743 5735 5724 5724 5720 5716 5727 5724 5718 5716 5714 5709 5714 5721 5729 5722 5730 5725 5719 5711 5716 5717 5713 5707 5702 5695
5706 5707 5708 5709 5711 5714 5715 5719 5719 5717 5708 5729 5735 5735 5739 5740 5733 5738 5747 5738 5729 5717 5717 5712 5725 5722 5716 5706 5704 5706 5708 5710 5716 5709 5715 5711 5712 5715 5713 5715 5713 5711 5709 5703 5698
5705 5704 5705 5707 5710 5709 5713 5714 5714 5714 5703 5717 5729 5731 5733 5732 5727 5746 5746 5738 5722 5713 5706 5713 5724 5716 5707 5705 5709 5698 5716 5718 5710 5700 5694 5708 5694 5722 5727 5705 5704 5707 5705 5703 5694
5701 5702 5702 5705 5706 5708 5710 5710 5713 5709 5675 5717 5724 5740 5730 5722 5724 5730 5740 5731 5715 5710 5706 5710 5711 5706 5705 5714 5713 5710 5717 5706 5704 5701 5695 5684 5681 5712 5704 5703 5714 5718 5713 5703 5691
5701 5701 5700 5700 5698 5706 5707 5708 5708 5692 5665 5696 5714 5710 5712 5715 5716 5724 5723 5729 5721 5706 5704 5715 5716 5712 5717 5715 5714 5717 5702 5689 5683 5686 5668 5694 5686 5708 5700 5723 5739 5731 5710 5697 5687
5701 5700 5698 5696 5703 5704 5704 5705 5687 5664 5690 5681 5689 5699 5697 5691 5698 5699 5697 5694 5688 5680 5686 5700 5707 5713 5713 5703 5707 5703 5691 5678 5670 5663 5674 5696 5681 5705 5711 5712 5714 5724 5703 5687 5680
5700 5697 5695 5696 5699 5700 5704 5692 5655 5660 5666 5680 5683 5686 5673 5677 5680 5683 5684 5677 5681 5677 5673 5669 5681 5695 5702 5699 5698 5694 5695 5683 5659 5671 5686 5677 5674 5702 5684 5687 5698 5706 5695 5681 5672
5697 5695 5696 5698 5698 5699 5697 5663 5643 5649 5661 5662 5671 5662 5660 5662 5658 5670 5663 5655 5659 5659 5651 5656 5663 5691 5692 5695 5689 5683 5677 5691 5678 5673 5669 5693 5684 5669 5675 5672 5678 5682 5678 5669 5663
5699 5699 5698 5699 5699 5701 5683 5650 5650 5653 5654 5659 5646 5647 5641 5643 5646 5646 5645 5635 5635 5640 5639 5646 5636 5672 5678 5681 5678 5674 5675 5666 5666 5652 5654 5681 5670 5681 5669 5662 5656 5657 5658 5654 5647
5700 5695 5700 5700 5699 5685 5655 5647 5647 5650 5648 5642 5634 5631 5628 5625 5629 5632 5628 5622 5625 5628 5632 5625 5626 5645 5658 5663 5658 5660 5658 5648 5648 5646 5645 5646 5661 5659 5652 5647 5643 5643 5640 5637 5635
5693 5679 5694 5698 5674 5652 5645 5642 5638 5635 5633 5627 5624 5616 5613 5612 5612 5615 5609 5608 5608 5607 5602 5605 5601 5609 5632 5647 5648 5648 5645 5642 5634 5635 5635 5628 5646 5644 5639 5633 5627 5626 5621 5620 5616
5683 5673 5688 5691 5655 5643 5638 5632 5627 5622 5613 5608 5603 5599 5600 5596 5593 5599 5596 5604 5597 5590 5582 5589 5581 5573 5612 5622 5625 5626 5624 5625 5625 5622 5621 5615 5640 5621 5617 5610 5611 5613 5610 5601 5595
5679 5665 5663 5655 5635 5636 5626 5615 5612 5611 5602 5596 5589 5590 5583 5583 5582 5579 5580 5586 5581 5574 5570 5563 5560 5550 5552 5562 5569 5587 5592 5598 5605 5606 5616 5618 5627 5619 5604 5604 5598 5597 5594 5595 5582
5667 5644 5637 5632 5628 5621 5617 5604 5598 5593 5594 5586 5580 5575 5566 5567 5570 5567 5568 5567 5570 5559 5555 5548 5546 5550 5558 5556 5547 5548 5565 5576 5583 5590 5592 5604 5599 5600 5597 5600 5596 5589 5581 5573 5568
5660 5648 5631 5619 5614 5613 5601 5594 5587 5584 5581 5576 5569 5567 5563 5558 5556 5552 5549 5545 5544 5546 5541 5536 5540 5534 5549 5559 5544 5539 5546 5553 5550 5555 5570 5571 5584 5572 5584 5596 5584 5577 5571 5563 5552
5644 5640 5640 5607 5607 5606 5596 5591 5585 5577 5579 5575 5567 5561 5559 5561 5555 5549 5543 5536 5530 5526 5528 5525 5527 5523 5540 5545 5554 5543 5531 5539 5530 5525 5520 5550 5546 5554 5565 5570 5568 5562 5554 5544 5541